Barksdale AFB, LA

2:45 PM CDT on October 22, 2017 (GMT -0500)
Barksdale Air Force Base

Weather History for KBAD - November, 2013

Change the Weather History Date:

Sunday, November 24, 2013

  Actual Average Record
Temperature  
Mean Temperature 38 °F -  
Max Temperature 44 °F 61 °F 80 °F (2010)
Min Temperature 31 °F 43 °F 26 °F (2003)
Degree Days  
Heating Degree Days 28    
Moisture  
Dew Point 25 °F    
Average Humidity 62    
Maximum Humidity 77    
Minimum Humidity 40    
Precipitation  
Precipitation 0.01 in - - ()
Sea Level Pressure  
Sea Level Pressure 30.46 in    
Wind  
Wind Speed 7 mph (NE)    
Max Wind Speed 13 mph    
Max Gust Speed 18 mph    
Visibility 10 miles    
Events Rain    
Averages and records for this station are not official NWS values.
T = Trace of Precipitation, MM = Missing Value Source: NWS Daily Summary

Daily Weather History Graph

Daily Weather History Graph

Search for Another Location

Airport or City:

Trip Planner

Search our weather history database for the weather conditions in past years. The results will help you decide how hot, cold, wet, or windy it might be!

Date:

Astronomy

Nov. 24, 2013 Rise Set
Actual Time 6:52 AM CST 5:10 PM CST
Civil Twilight 6:26 AM CST 5:36 PM CST
Nautical Twilight 5:55 AM CST 6:06 PM CST
Astronomical Twilight 5:26 AM CST 6:36 PM CST
Moon 11:25 PM CST (11/24) 11:50 AM CST (11/24)
Length of Visible Light 11h 10m
Length of Day
10h 17m
Waning Gibbous, 60% of the Moon is Illuminated
Nov 24
Waning Gibbous
Nov 25
Last Quarter
Dec 2
New
Dec 9
First Quarter
Dec 17
Full

Hourly Weather History & Observations

Time (CST) Temp. Windchill Dew Point Humidity Pressure Visibility Wind Dir Wind Speed Gust Speed Precip Events Conditions
12:58 AM 38.1 °F 34.6 °F 27.5 °F 66% 30.51 in 10.0 mi Variable 4.6 mph - N/A   Clear
1:58 AM 37.2 °F 32.6 °F 26.1 °F 64% 30.51 in 10.0 mi NNE 5.8 mph - N/A   Clear
2:58 AM 36.0 °F 31.1 °F 26.4 °F 68% 30.53 in 10.0 mi NNE 5.8 mph - N/A   Clear
3:58 AM 34.5 °F 30.4 °F 27.0 °F 74% 30.51 in 10.0 mi NNE 4.6 mph - N/A   Clear
4:58 AM 33.8 °F 27.7 °F 27.1 °F 77% 30.55 in 10.0 mi NNE 6.9 mph - N/A   Clear
5:58 AM 32.9 °F 25.9 °F 24.6 °F 72% 30.56 in 10.0 mi NE 8.1 mph - N/A   Clear
6:58 AM 31.5 °F 23.5 °F 22.6 °F 70% 30.58 in 10.0 mi NNE 9.2 mph - N/A   Clear
7:58 AM 32.4 °F 24.0 °F 21.6 °F 64% 30.58 in 10.0 mi NNE 10.4 mph - N/A   Clear
8:58 AM 34.2 °F 26.2 °F 20.7 °F 58% 30.60 in 10.0 mi NE 10.4 mph 18.4 mph N/A   Clear
9:58 AM 37.4 °F 29.8 °F 21.4 °F 52% 30.58 in 10.0 mi NE 11.5 mph - N/A   Clear
10:58 AM 39.6 °F 33.5 °F 21.2 °F 48% 30.56 in 10.0 mi NE 9.2 mph - N/A   Clear
11:58 AM 41.2 °F 34.1 °F 21.0 °F 45% 30.51 in 10.0 mi NE 12.7 mph 16.1 mph N/A   Partly Cloudy
12:58 PM 42.6 °F 38.4 °F 21.4 °F 43% 30.45 in 10.0 mi Variable 6.9 mph 17.3 mph N/A   Clear
1:58 PM 44.8 °F 39.9 °F 21.7 °F 40% 30.45 in 10.0 mi NE 9.2 mph - N/A   Clear
2:58 PM 43.7 °F 38.6 °F 22.1 °F 42% 30.43 in 10.0 mi NE 9.2 mph - N/A   Mostly Cloudy
3:58 PM 43.2 °F 38.4 °F 22.3 °F 44% 30.43 in 10.0 mi NE 8.1 mph - N/A   Scattered Clouds
4:58 PM 40.6 °F 36.0 °F 23.5 °F 51% 30.43 in 10.0 mi NNE 6.9 mph - N/A   Mostly Cloudy
5:58 PM 39.2 °F 34.2 °F 23.0 °F 52% 30.45 in 10.0 mi NE 6.9 mph - N/A   Mostly Cloudy
6:43 PM 39.2 °F 33.6 °F 23.0 °F 52% 30.42 in 10.0 mi NE 8.1 mph - N/A Rain Light Rain
6:58 PM 37.9 °F 33.5 °F 25.7 °F 61% 30.43 in 10.0 mi ENE 5.8 mph - 0.00 in Rain Light Rain
7:06 PM 37.4 °F 31.4 °F 24.8 °F 60% 30.41 in 10.0 mi ENE 8.1 mph - N/A   Mostly Cloudy
7:15 PM 37.4 °F - 24.8 °F 60% 30.42 in 10.0 mi Variable 1.2 mph - N/A Rain Light Rain
7:36 PM 37.4 °F - 26.6 °F 65% 30.43 in 10.0 mi North 2.3 mph - N/A   Partly Cloudy
7:58 PM 36.5 °F 31.8 °F 26.8 °F 68% 30.43 in 10.0 mi NE 5.8 mph - 0.00 in   Partly Cloudy
8:58 PM 36.1 °F 32.3 °F 26.2 °F 67% 30.43 in 10.0 mi ENE 4.6 mph - N/A   Scattered Clouds
9:18 PM 35.6 °F - 26.6 °F 70% 30.42 in 10.0 mi Variable 2.3 mph - N/A   Mostly Cloudy
9:28 PM 35.6 °F 31.7 °F 26.6 °F 70% 30.42 in 10.0 mi ENE 4.6 mph - N/A   Overcast
9:32 PM 35.6 °F 32.8 °F 26.6 °F 70% 30.42 in 10.0 mi NE 3.5 mph - N/A Rain Light Rain
9:56 PM 35.6 °F 31.7 °F 26.6 °F 70% 30.41 in 10.0 mi ENE 4.6 mph - N/A   Overcast
9:58 PM 35.6 °F 30.7 °F 26.6 °F 70% 30.43 in 10.0 mi ENE 5.8 mph - 0.01 in   Overcast
9:59 PM 35.6 °F 30.7 °F 26.6 °F 70% 30.41 in 10.0 mi NE 5.8 mph - N/A Rain Light Rain
10:16 PM 35.6 °F 32.8 °F 26.6 °F 70% 30.41 in 10.0 mi NE 3.5 mph - N/A   Mostly Cloudy
10:58 PM 34.9 °F 30.8 °F 28.2 °F 77% 30.40 in 10.0 mi East 4.6 mph - 0.00 in   Overcast
11:52 PM 35.6 °F 31.7 °F 28.4 °F 75% 30.37 in 10.0 mi ENE 4.6 mph - N/A Rain Light Rain
11:58 PM 35.1 °F 30.1 °F 28.2 °F 76% 30.38 in 10.0 mi East 5.8 mph - N/A Rain Light Rain